KE2GQQ Weather Reports


time (UTC)temp
C
wind
direction
speed
KPH
gust
KPH
rain 1hr
cm
rain 24hr
cm
rain mn
cm
humidity
%
barometer
mb
20260504182537 21 218 3.2 14.5 0.00 0.00 0.00 40 1010.5
20260504181517 21 227 3.2 14.5 0.00 0.00 0.00 40 1010.6
20260504180516 21 209 4.8 14.5 0.00 0.00 0.00 39 1010.7
20260504175517 21 205 4.8 14.5 0.00 0.00 0.00 39 1010.9
20260504174517 21 204 3.2 9.7 0.00 0.00 0.00 40 1010.9
20260504150516 18 235 3.2 11.3 0.00 0.00 0.00 43 1012.9
20260504140537 17 211 3.2 8.0 0.00 0.00 0.00 45 1013.2
20260504130536 15 183 4.8 11.3 0.00 0.00 0.00 51 1013.8
20260504110517 11 189 1.6 6.4 0.00 0.00 0.00 56 1013.9
20260504100519 8 192 1.6 4.8 0.00 0.00 0.00 63 1013.7
20260504081517 11 183 1.6 4.8 0.00 0.00 0.00 53 1013.1
20260504080516 11 183 1.6 4.8 0.00 0.00 0.00 52 1013.1
20260504050016 6 16 0.0 1.6 0.00 0.00 0.00 75 1012.5
20260504045016 6 69 0.0 1.6 0.00 0.00 0.00 74 1012.5
20260504044036 6 301 0.0 0.0 0.00 0.00 0.00 74 1012.4
20260504043037 6 167 0.0 1.6 0.00 0.00 0.00 74 1012.3
20260504042016 6 0.0 0.0 0.00 0.00 0.00 75 1012.2
20260504041037 6 24 0.0 0.0 0.00 0.00 0.00 74 1012.2
20260504040017 6 177 0.0 1.6 0.00 0.00 0.00 74 1012.2
20260504035017 6 21 0.0 1.6 0.00 0.00 0.00 73 1012.2
20260504034017 6 211 0.0 0.0 0.00 0.00 0.00 73 1012.2
20260504033017 7 33 0.0 1.6 0.00 0.00 0.00 73 1012.2
20260504032017 7 233 0.0 1.6 0.00 0.00 0.00 72 1012.1
20260504031018 7 23 0.0 1.6 0.00 0.00 0.00 72 1012.2
20260504030038 7 167 0.0 1.6 0.00 0.00 0.00 71 1012.1
20260504025017 7 252 0.0 1.6 0.00 0.00 0.00 70 1012.1
20260504024018 7 27 0.0 1.6 0.00 0.00 0.00 69 1012.1
20260504023018 8 176 0.0 1.6 0.00 0.00 0.00 68 1012.2
20260504022016 8 160 0.0 1.6 0.00 0.00 0.00 67 1012.3
20260504021015 8 154 0.0 1.6 0.00 0.00 0.00 66 1012.2
20260504020016 8 97 0.0 0.0 0.00 0.00 0.00 62 1012.2
20260504015015 9 134 0.0 1.6 0.00 0.00 0.00 60 1012.1
20260504014015 9 104 0.0 1.6 0.00 0.00 0.00 59 1012.0
20260504013016 10 109 0.0 1.6 0.00 0.00 0.00 57 1011.9
20260504012017 10 135 0.0 1.6 0.00 0.00 0.00 55 1011.8
20260504011037 11 15 0.0 1.6 0.00 0.00 0.00 53 1011.6
20260504010018 11 43 0.0 0.0 0.00 0.00 0.00 51 1011.5
20260504005038 11 87 0.0 1.6 0.00 0.00 0.00 51 1011.4
20260504004018 11 99 0.0 1.6 0.00 0.00 0.00 50 1011.3
20260504003018 12 133 0.0 1.6 0.00 0.00 0.00 51 1011.2
20260504002018 12 136 0.0 1.6 0.00 0.00 0.00 53 1011.0
20260504001015 12 197 0.0 1.6 0.00 0.00 0.00 46 1010.8
20260504000016 13 33 0.0 1.6 0.00 0.00 0.00 43 1010.8
20260503235016 13 178 0.0 3.2 0.00 0.00 0.00 42 1010.7
20260503234017 13 294 0.0 1.6 0.00 0.00 0.00 40 1010.5
20260503233016 14 241 0.0 4.8 0.00 0.00 0.00 39 1010.4
20260503232016 14 235 1.6 4.8 0.00 0.00 0.00 39 1010.4
20260503231016 14 220 1.6 6.4 0.00 0.00 0.00 39 1010.3
20260503230017 14 266 1.6 4.8 0.00 0.00 0.00 38 1010.2
20260503225016 15 233 1.6 6.4 0.00 0.00 0.00 36 1010.1
20260503224017 15 245 1.6 9.7 0.00 0.00 0.00 36 1010.1
20260503223017 15 248 1.6 8.0 0.00 0.00 0.00 35 1010.1
20260503222017 15 277 1.6 6.4 0.00 0.00 0.00 35 1010.1
20260503221038 15 246 1.6 8.0 0.00 0.00 0.00 35 1010.1
20260503220017 15 240 3.2 8.0 0.00 0.00 0.00 35 1010.1
20260503215018 15 229 3.2 6.4 0.00 0.00 0.00 35 1010.1
20260503214038 15 304 3.2 9.7 0.00 0.00 0.00 36 1010.1
20260503213018 15 243 3.2 8.0 0.00 0.00 0.00 35 1010.0
20260503212018 15 260 1.6 6.4 0.00 0.00 0.00 37 1009.9
20260503211015 15 229 1.6 8.0 0.00 0.00 0.00 37 1009.9
20260503210015 15 261 3.2 9.7 0.00 0.00 0.00 37 1009.8
20260503205015 15 274 3.2 6.4 0.00 0.00 0.00 38 1009.8
20260503204016 14 276 3.2 12.9 0.00 0.00 0.00 38 1010.0
20260503203036 14 252 3.2 9.7 0.00 0.00 0.00 38 1010.0
20260503202016 14 233 3.2 9.7 0.00 0.00 0.00 37 1010.0
20260503201037 14 262 3.2 9.7 0.00 0.00 0.00 38 1010.0
20260503200016 14 242 3.2 8.0 0.00 0.00 0.00 39 1010.1
20260503195016 13 257 3.2 9.7 0.00 0.00 0.00 40 1010.1
20260503194017 13 252 3.2 9.7 0.00 0.00 0.00 39 1010.2
20260503193037 13 240 3.2 9.7 0.00 0.00 0.00 40 1010.3
20260503192017 13 232 3.2 8.0 0.00 0.00 0.00 41 1010.4
20260503191017 13 235 3.2 11.3 0.00 0.00 0.00 40 1010.5
20260503190018 12 281 3.2 8.0 0.00 0.00 0.00 43 1010.7
20260503185018 13 237 4.8 9.7 0.00 0.00 0.00 42 1010.8
20260503184017 13 234 3.2 9.7 0.00 0.00 0.00 41 1010.8